GFSNIL_sfc_rhum_102.txt.gz
RH
84 88 88 87 88 89 91 93 92 84 79 83 83 90 92 94 95 91 93 90 94 95
84 87 85 83 83 84 89 92 94 90 83 81 82 86 93 92 92 93 94 94 93 92
82 85 85 81 81 82 89 91 93 88 80 79 80 81 84 85 89 92 92 93 93 94
80 83 86 81 79 74 77 80 81 76 76 77 89 84 84 86 87 90 88 94 93 89
81 81 84 84 81 78 79 80 78 76 72 73 78 85 90 86 82 88 91 90 94 90
84 82 82 86 83 81 82 81 78 76 75 74 74 79 84 82 87 91 91 90 92 88
84 82 82 85 84 82 82 85 81 79 76 76 75 74 73 72 76 82 90 98 97 95
81 81 82 85 85 82 82 80 81 80 80 78 76 74 78 76 79 89 97 96 94 95
83 85 83 84 86 87 84 81 83 80 80 81 85 100 100 91 98 95 96 98 97 95
85 85 87 86 85 85 89 87 84 91 95 98 98 100 98 96 95 96 97 97 97 96
85 84 85 88 89 91 94 98 98 98 97 98 97 97 96 95 94 96 97 96 96 97
84 87 88 90 91 99 99 98 98 96 97 97 98 95 94 92 93 96 97 96 97 97
91 89 91 99 98 97 96 97 96 97 96 96 97 93 91 88 88 93 94 96 96 93
98 98 97 97 95 95 96 96 96 97 97 96 96 96 90 86 85 89 91 90 93 96

GFSNIL_sfc_rhum_105.txt.gz
RH
90 92 92 90 90 91 94 95 94 92 93 95 93 92 96 97 98 94 93 88 90 90
90 90 91 89 90 88 90 95 96 95 95 96 95 94 94 94 94 98 96 95 94 94
91 87 88 90 89 90 94 95 95 96 95 96 96 96 96 98 97 96 96 95 95 95
86 87 93 87 87 88 92 92 93 91 93 93 94 96 95 95 94 94 90 90 93 91
84 86 90 88 84 87 92 91 90 91 91 86 82 81 82 83 84 89 90 90 95 92
90 87 87 90 88 81 84 88 89 90 89 83 81 85 84 85 87 92 90 90 92 86
92 90 86 86 88 86 83 83 85 84 80 78 76 77 83 88 93 93 93 95 97 97
92 91 86 90 90 86 90 84 83 86 85 85 85 83 88 87 91 92 99 98 96 97
88 92 90 90 91 91 90 92 89 87 87 90 88 91 92 92 93 96 99 98 98 96
85 88 89 87 87 90 93 92 94 93 92 93 96 100 100 99 97 98 99 98 97 96
86 86 85 89 90 91 93 94 96 99 98 99 99 100 99 97 97 98 98 97 97 97
88 90 88 90 93 96 99 99 99 99 99 98 99 98 97 96 96 97 98 97 96 96
89 91 93 93 99 99 99 99 98 98 98 97 98 95 95 93 93 96 96 96 96 92
96 93 98 98 99 98 98 98 98 97 98 97 96 97 92 90 89 90 92 93 95 96

GFSNIL_sfc_rhum_108.txt.gz
RH
94 95 95 91 93 95 95 95 93 89 85 92 91 93 91 91 95 92 92 85 84 87
93 94 95 93 90 94 95 97 95 93 90 85 87 93 93 95 98 96 96 95 92 93
91 93 93 94 92 94 96 96 96 96 93 92 90 91 93 94 93 97 99 98 97 96
96 91 93 93 94 94 96 97 95 94 94 94 92 90 92 92 93 92 94 98 98 96
97 96 96 93 92 94 94 94 96 97 94 94 95 94 93 95 94 93 94 92 96 93
97 96 96 92 91 93 94 93 92 93 96 95 93 95 95 92 96 96 94 93 92 88
97 95 92 92 91 92 92 93 92 90 92 94 94 91 93 90 90 90 89 92 93 94
92 91 89 90 90 88 89 90 90 91 90 89 89 88 89 88 92 95 99 99 97 97
95 93 90 91 92 90 90 88 90 92 90 92 90 95 94 92 94 95 98 99 98 96
93 95 94 93 92 92 92 92 92 93 95 95 94 100 95 96 94 96 98 98 98 95
89 92 94 94 94 94 94 96 96 96 96 98 99 100 100 99 98 99 99 97 97 97
91 89 92 94 94 95 96 99 99 99 99 99 99 100 99 98 98 98 98 98 96 95
95 93 93 93 95 99 98 99 99 99 99 98 98 97 97 96 96 97 97 97 97 93
95 96 92 95 99 99 98 98 98 98 98 98 97 98 94 91 91 92 93 93 95 96

GFSNIL_sfc_rhum_111.txt.gz
RH
78 81 84 90 88 94 95 94 94 90 88 82 78 76 78 80 79 76 83 80 74 71
88 87 94 89 88 92 93 94 94 95 92 85 83 79 79 81 85 83 86 84 84 82
89 88 91 91 91 94 96 94 94 94 91 91 91 85 82 85 84 83 87 83 82 80
87 87 92 93 93 92 96 94 94 90 90 88 91 93 92 91 92 85 84 88 76 84
85 87 88 94 93 94 96 96 97 93 92 90 90 88 88 93 92 87 90 90 93 91
90 88 88 89 92 94 95 96 97 96 96 93 92 92 88 84 88 90 88 91 92 91
88 85 88 90 92 93 92 92 93 95 95 94 93 91 89 86 86 91 89 90 93 92
84 82 85 90 91 92 93 91 90 93 94 94 96 95 96 94 93 93 97 99 99 98
83 82 84 87 89 91 92 92 93 93 93 96 97 100 100 98 97 98 98 99 97 94
86 82 85 83 84 86 88 89 93 94 94 95 92 100 100 100 98 98 99 98 96 93
87 90 84 83 86 85 84 88 91 94 95 94 92 100 99 100 94 96 97 97 96 97
93 91 91 90 90 88 91 92 90 91 94 96 99 100 100 95 96 98 99 98 97 96
90 94 95 93 92 94 94 97 99 99 98 99 99 99 99 96 96 98 97 98 99 95
88 91 95 96 98 99 99 99 99 98 98 97 96 99 97 94 92 94 95 95 96 95

GFSNIL_sfc_rhum_114.txt.gz
RH
71 64 64 60 64 87 94 95 94 96 96 95 94 92 89 86 87 76 70 67 60 50
69 66 64 65 77 91 90 94 96 96 96 95 94 94 93 93 94 87 77 72 68 59
64 63 65 74 87 93 92 92 94 94 94 94 93 92 91 89 83 79 78 79 76 68
69 64 72 78 82 92 93 93 92 92 94 91 86 85 85 78 78 75 74 73 71 70
72 68 77 88 88 92 96 93 92 94 91 91 79 77 75 72 69 71 75 74 73 67
76 74 72 77 84 90 96 95 93 92 91 91 90 88 83 79 79 76 76 78 68 69
72 69 66 67 78 87 91 96 96 93 92 94 90 91 88 90 91 88 86 86 84 88
73 69 72 74 73 77 84 87 90 95 95 92 94 92 90 86 86 85 89 96 97 98
78 73 75 76 79 78 77 76 75 82 95 98 98 100 100 96 91 88 91 99 98 98
78 81 78 72 76 79 83 80 82 85 89 90 93 100 100 100 94 96 98 98 98 98
90 86 78 80 76 75 78 84 87 86 85 88 88 100 100 100 98 99 98 98 98 98
86 90 93 86 85 77 78 82 85 88 91 90 82 100 100 99 99 99 100 99 100 99
85 88 90 96 90 86 77 78 89 91 95 99 95 100 100 94 96 98 97 100 100 96
81 87 88 95 97 97 98 98 99 98 98 98 99 100 98 95 93 96 97 96 96 95

GFSNIL_sfc_rhum_117.txt.gz
RH
56 53 54 57 52 58 73 76 84 94 96 96 94 94 94 94 92 92 89 77 70 57
58 56 56 57 60 61 66 78 82 95 96 96 95 95 95 95 93 93 92 90 85 68
59 56 57 67 70 69 81 84 92 96 96 97 97 95 95 95 93 93 92 87 81 73
55 58 62 70 69 74 85 87 90 93 93 95 96 96 96 96 95 92 92 89 75 72
59 61 66 69 71 78 90 90 92 90 92 94 95 96 95 96 95 93 94 93 87 75
69 66 69 70 76 89 93 93 91 92 94 93 93 94 94 95 93 93 90 87 79 68
76 71 67 72 72 84 92 93 94 93 91 90 89 90 92 92 91 80 71 72 72 69
70 71 71 74 68 74 88 92 90 90 91 91 93 91 87 85 81 78 91 94 90 84
67 69 69 67 74 80 78 86 91 92 91 94 92 100 100 97 93 94 96 98 99 99
76 79 77 66 67 71 80 74 85 89 94 95 92 100 100 100 93 94 93 98 98 99
88 89 83 79 70 70 76 81 84 83 83 94 96 100 100 100 92 96 99 99 98 99
87 89 89 93 81 71 71 80 85 84 88 89 91 100 100 100 99 100 100 100 100 100
89 88 90 92 94 96 80 75 78 89 97 100 99 100 100 99 99 99 99 99 100 98
87 87 90 94 96 98 99 99 99 98 98 98 98 99 99 99 99 98 98 97 97 97